TimeEST,TemperatureF,Dew PointF,Humidity,Sea Level PressureIn,VisibilityMPH,Wind Direction,Wind SpeedMPH,Gust SpeedMPH,PrecipitationIn,Events,Conditions,WindDirDegrees,DateUTC
12:15 AM,30.2,26.6,86,30.06,10.0,Calm,Calm,-,N/A,,Overcast,0,2012-01-07 05:15:00
12:35 AM,30.2,26.6,86,30.06,10.0,Calm,Calm,-,N/A,,Overcast,0,2012-01-07 05:35:00
12:55 AM,32.0,26.6,80,30.06,10.0,Calm,Calm,-,N/A,,Overcast,0,2012-01-07 05:55:00
1:35 AM,32.0,26.6,80,30.04,10.0,Calm,Calm,-,N/A,,Overcast,0,2012-01-07 06:35:00
1:55 AM,32.0,26.6,80,30.04,10.0,Calm,Calm,-,N/A,,Overcast,0,2012-01-07 06:55:00
2:15 AM,33.8,28.4,81,30.05,10.0,Calm,Calm,-,N/A,,Overcast,0,2012-01-07 07:15:00
2:35 AM,33.8,28.4,81,30.05,10.0,Calm,Calm,-,N/A,,Overcast,0,2012-01-07 07:35:00
2:55 AM,33.8,28.4,81,30.05,10.0,Calm,Calm,-,N/A,,Overcast,0,2012-01-07 07:55:00
3:15 AM,35.6,28.4,75,30.05,10.0,Calm,Calm,-,N/A,,Overcast,0,2012-01-07 08:15:00
3:35 AM,33.8,28.4,81,30.04,10.0,Calm,Calm,-,N/A,,Overcast,0,2012-01-07 08:35:00
3:55 AM,35.6,28.4,75,30.04,10.0,NW,3.5,-,N/A,,Overcast,310,2012-01-07 08:55:00
4:15 AM,35.6,28.4,75,30.03,10.0,Calm,Calm,-,N/A,,Overcast,0,2012-01-07 09:15:00
4:35 AM,35.6,28.4,75,30.03,10.0,Calm,Calm,-,N/A,,Overcast,0,2012-01-07 09:35:00
4:55 AM,35.6,28.4,75,30.02,10.0,Calm,Calm,-,N/A,,Overcast,0,2012-01-07 09:55:00
5:15 AM,35.6,30.2,81,30.03,10.0,Calm,Calm,-,N/A,Rain,Light Rain,0,2012-01-07 10:15:00
5:35 AM,33.8,32.0,93,30.03,10.0,Calm,Calm,-,N/A,,Mostly Cloudy,0,2012-01-07 10:35:00
5:55 AM,33.8,30.2,87,30.03,10.0,Calm,Calm,-,N/A,Rain,Light Rain,0,2012-01-07 10:55:00
6:15 AM,33.8,32.0,93,30.04,10.0,Calm,Calm,-,N/A,,Overcast,0,2012-01-07 11:15:00
6:35 AM,33.8,32.0,93,30.04,10.0,Calm,Calm,-,N/A,,Overcast,0,2012-01-07 11:35:00
6:55 AM,32.0,32.0,100,30.04,10.0,Calm,Calm,-,N/A,,Scattered Clouds,0,2012-01-07 11:55:00
7:15 AM,32.0,30.2,93,30.04,10.0,Calm,Calm,-,N/A,,Scattered Clouds,0,2012-01-07 12:15:00
7:35 AM,32.0,32.0,100,30.04,10.0,Calm,Calm,-,N/A,,Scattered Clouds,0,2012-01-07 12:35:00
7:55 AM,32.0,32.0,100,30.04,10.0,Calm,Calm,-,N/A,,Scattered Clouds,0,2012-01-07 12:55:00
8:15 AM,32.0,32.0,100,30.04,10.0,Calm,Calm,-,N/A,,Scattered Clouds,0,2012-01-07 13:15:00
8:35 AM,32.0,32.0,100,30.05,10.0,Calm,Calm,-,N/A,,Clear,0,2012-01-07 13:35:00
8:55 AM,33.8,32.0,93,30.04,10.0,Calm,Calm,-,N/A,,Clear,0,2012-01-07 13:55:00
9:15 AM,37.4,32.0,81,30.05,10.0,Calm,Calm,-,N/A,,Scattered Clouds,0,2012-01-07 14:15:00
9:35 AM,37.4,32.0,81,30.06,10.0,Calm,Calm,-,N/A,,Overcast,0,2012-01-07 14:35:00
9:55 AM,39.2,33.8,81,30.06,10.0,Calm,Calm,-,N/A,,Scattered Clouds,0,2012-01-07 14:55:00
10:15 AM,41.0,33.8,76,30.07,10.0,Calm,Calm,-,N/A,,Clear,0,2012-01-07 15:15:00
10:35 AM,42.8,33.8,70,30.07,10.0,Calm,Calm,-,N/A,,Mostly Cloudy,0,2012-01-07 15:35:00
10:55 AM,42.8,35.6,76,30.08,10.0,Calm,Calm,-,N/A,,Overcast,0,2012-01-07 15:55:00
11:15 AM,44.6,35.6,71,30.08,10.0,Calm,Calm,-,N/A,,Overcast,0,2012-01-07 16:15:00
11:35 AM,44.6,35.6,71,30.07,10.0,Calm,Calm,-,N/A,,Overcast,0,2012-01-07 16:35:00
11:55 AM,46.4,37.4,71,30.06,10.0,Calm,Calm,-,N/A,,Overcast,0,2012-01-07 16:55:00
12:15 PM,50.0,39.2,66,30.06,10.0,Calm,Calm,-,N/A,,Overcast,0,2012-01-07 17:15:00
12:35 PM,51.8,41.0,67,30.04,10.0,ENE,5.8,-,N/A,,Overcast,70,2012-01-07 17:35:00
12:55 PM,53.6,42.8,67,30.04,10.0,NE,4.6,-,N/A,,Overcast,50,2012-01-07 17:55:00
1:15 PM,53.6,42.8,67,30.04,10.0,Calm,Calm,-,N/A,Rain,Light Rain,0,2012-01-07 18:15:00
1:35 PM,51.8,44.6,76,30.04,10.0,Calm,Calm,-,N/A,Rain,Light Rain,0,2012-01-07 18:35:00
1:55 PM,51.8,46.4,82,30.04,10.0,Calm,Calm,-,N/A,,Overcast,0,2012-01-07 18:55:00
2:15 PM,51.8,44.6,76,30.04,10.0,East,3.5,-,N/A,,Overcast,90,2012-01-07 19:15:00
2:35 PM,51.8,44.6,76,30.03,7.0,ENE,3.5,-,N/A,Rain,Rain,70,2012-01-07 19:35:00
2:55 PM,51.8,46.4,82,30.03,7.0,ENE,3.5,-,N/A,,Mostly Cloudy,60,2012-01-07 19:55:00
3:15 PM,53.6,46.4,77,30.03,10.0,Calm,Calm,-,N/A,,Mostly Cloudy,0,2012-01-07 20:15:00
3:35 PM,53.6,46.4,77,30.04,10.0,WSW,4.6,-,N/A,,Overcast,250,2012-01-07 20:35:00
3:55 PM,53.6,46.4,77,30.04,10.0,Calm,Calm,-,N/A,,Overcast,0,2012-01-07 20:55:00
4:15 PM,53.6,48.2,82,30.04,7.0,Calm,Calm,-,0.01,Rain,Light Rain,0,2012-01-07 21:15:00
4:35 PM,51.8,48.2,88,30.04,10.0,Calm,Calm,-,0.01,,Overcast,0,2012-01-07 21:35:00
4:55 PM,51.8,48.2,88,30.04,10.0,Calm,Calm,-,0.01,,Overcast,0,2012-01-07 21:55:00
5:15 PM,50.0,46.4,87,30.04,7.0,Calm,Calm,-,N/A,,Overcast,0,2012-01-07 22:15:00
5:35 PM,48.2,46.4,93,30.06,7.0,Calm,Calm,-,N/A,,Overcast,0,2012-01-07 22:35:00
5:55 PM,46.4,44.6,93,30.06,7.0,Calm,Calm,-,N/A,,Overcast,0,2012-01-07 22:55:00
6:15 PM,46.4,44.6,93,30.06,5.0,Calm,Calm,-,N/A,Rain,Light Rain,0,2012-01-07 23:15:00
6:35 PM,46.4,46.4,100,30.07,5.0,Calm,Calm,-,N/A,,Drizzle,0,2012-01-07 23:35:00
6:55 PM,46.4,44.6,93,30.08,3.0,Calm,Calm,-,0.02,Rain,Rain,0,2012-01-07 23:55:00
7:15 PM,46.4,44.6,93,30.09,3.0,Calm,Calm,-,0.01,Rain,Light Rain,0,2012-01-08 00:15:00
7:35 PM,46.4,44.6,93,30.09,3.0,Calm,Calm,-,0.01,,Overcast,0,2012-01-08 00:35:00
7:55 PM,46.4,44.6,93,30.09,1.8,Calm,Calm,-,0.01,Rain,Rain,0,2012-01-08 00:55:00
8:15 PM,46.4,44.6,93,30.10,1.5,Calm,Calm,-,N/A,,Overcast,0,2012-01-08 01:15:00
8:35 PM,46.4,44.6,93,30.10,0.8,Calm,Calm,-,N/A,,Overcast,0,2012-01-08 01:35:00
8:55 PM,46.4,44.6,93,30.10,0.8,Calm,Calm,-,N/A,,Overcast,0,2012-01-08 01:55:00
9:15 PM,46.4,44.6,93,30.11,1.0,Calm,Calm,-,N/A,,Overcast,0,2012-01-08 02:15:00
9:35 PM,46.4,44.6,93,30.11,0.8,Calm,Calm,-,N/A,,Overcast,0,2012-01-08 02:35:00
9:55 PM,46.4,44.6,93,30.12,1.0,Calm,Calm,-,N/A,,Overcast,0,2012-01-08 02:55:00
10:15 PM,46.4,44.6,93,30.12,1.5,Calm,Calm,-,N/A,,Overcast,0,2012-01-08 03:15:00
10:35 PM,44.6,42.8,93,30.11,0.5,Calm,Calm,-,N/A,Fog,Fog,0,2012-01-08 03:35:00
10:55 PM,44.6,42.8,93,30.12,0.2,Calm,Calm,-,N/A,Fog,Fog,0,2012-01-08 03:55:00
11:15 PM,44.6,42.8,93,30.12,0.2,Calm,Calm,-,N/A,Fog,Fog,0,2012-01-08 04:15:00
11:35 PM,44.6,42.8,93,30.13,0.5,Calm,Calm,-,N/A,Fog,Fog,0,2012-01-08 04:35:00
11:55 PM,44.6,42.8,93,30.13,0.2,Calm,Calm,-,N/A,Fog,Fog,0,2012-01-08 04:55:00